Time,TemperatureF,DewpointF,PressureIn,WindDirection,WindDirectionDegrees,WindSpeedMPH,WindSpeedGustMPH,Humidity,HourlyPrecipIn,Conditions,Clouds,dailyrainin,SoftwareType,DateUTC
2013-07-18 08:22:00,71.0,71.0,29.95,West,265,0.0,-999.0,99,-99.99,,,-99.99,,2013-07-18 12:22:00,
2013-07-18 08:33:00,71.0,71.0,29.95,West,265,0.0,-999.0,99,-99.99,,,-99.99,,2013-07-18 12:33:00,
2013-07-18 08:42:00,71.0,70.0,29.92,West,269,0.0,-999.0,98,-99.99,,,-99.99,,2013-07-18 12:42:00,
2013-07-18 08:52:00,72.0,71.0,29.94,West,265,0.0,-999.0,97,-99.99,,,-99.99,,2013-07-18 12:52:00,
2013-07-18 09:01:00,72.0,71.0,29.91,West,265,0.0,-999.0,97,-99.99,,,-99.99,,2013-07-18 13:01:00,
2013-07-18 09:22:00,74.0,72.0,29.95,SE,139,0.0,-999.0,92,-99.99,,,-99.99,,2013-07-18 13:22:00,
2013-07-18 09:32:00,74.0,71.0,29.92,SE,139,0.0,-999.0,89,-99.99,,,-99.99,,2013-07-18 13:32:00,
2013-07-18 09:43:00,75.0,69.0,29.91,SE,139,0.0,-999.0,82,-99.99,,,-99.99,,2013-07-18 13:43:00,
2013-07-18 10:02:00,76.0,70.0,29.91,ESE,122,0.0,-999.0,81,-99.99,,,-99.99,,2013-07-18 14:02:00,
2013-07-18 10:12:00,76.0,70.0,29.91,ESE,122,0.0,-999.0,81,-99.99,,,-99.99,,2013-07-18 14:12:00,
2013-07-18 10:33:00,77.0,70.0,29.94,NNE,14,0.0,-999.0,80,-99.99,,,-99.99,,2013-07-18 14:33:00,
2013-07-18 10:43:00,78.0,71.0,29.90,East,82,0.0,-999.0,78,-99.99,,,-99.99,,2013-07-18 14:43:00,
2013-07-18 11:01:00,79.0,71.0,29.90,East,82,0.0,-999.0,76,-99.99,,,-99.99,,2013-07-18 15:01:00,
2013-07-18 11:11:00,78.0,70.0,29.89,NE,49,0.0,-999.0,77,-99.99,,,-99.99,,2013-07-18 15:11:00,
2013-07-18 11:32:00,78.0,71.0,29.90,NE,49,0.0,-999.0,78,-99.99,,,-99.99,,2013-07-18 15:32:00,
2013-07-18 11:43:00,78.0,71.0,29.90,NE,49,0.0,-999.0,79,-99.99,,,-99.99,,2013-07-18 15:43:00,
2013-07-18 11:53:00,79.0,72.0,29.93,NE,49,0.0,-999.0,80,-99.99,,,-99.99,,2013-07-18 15:53:00,
2013-07-18 12:22:00,82.0,71.0,29.92,North,359,0.0,-999.0,70,-99.99,,,-99.99,,2013-07-18 16:22:00,
2013-07-18 12:32:00,82.0,72.0,29.88,North,351,0.0,-999.0,73,-99.99,,,-99.99,,2013-07-18 16:32:00,
2013-07-18 12:42:00,82.0,72.0,29.88,North,351,0.0,-999.0,73,-99.99,,,-99.99,,2013-07-18 16:42:00,
2013-07-18 12:52:00,84.0,74.0,29.91,SE,131,0.0,-999.0,71,-99.99,,,-99.99,,2013-07-18 16:52:00,
2013-07-18 13:02:00,84.0,73.0,29.88,NW,311,1.0,-999.0,70,-99.99,,,-99.99,,2013-07-18 17:02:00,
2013-07-18 13:11:00,84.0,73.0,29.88,NW,311,1.0,-999.0,70,-99.99,,,-99.99,,2013-07-18 17:11:00,
2013-07-18 13:22:00,84.0,70.0,29.88,East,93,1.0,-999.0,62,-99.99,,,-99.99,,2013-07-18 17:22:00,
2013-07-18 13:33:00,84.0,70.0,29.88,East,93,1.0,-999.0,62,-99.99,,,-99.99,,2013-07-18 17:33:00,
2013-07-18 13:43:00,85.0,72.0,29.87,ENE,58,1.0,-999.0,65,-99.99,,,-99.99,,2013-07-18 17:43:00,
2013-07-18 14:01:00,85.0,72.0,29.86,ENE,62,1.0,-999.0,65,-99.99,,,-99.99,,2013-07-18 18:01:00,
2013-07-18 14:22:00,87.0,73.0,29.89,East,85,0.0,-999.0,63,-99.99,,,-99.99,,2013-07-18 18:22:00,
2013-07-18 14:32:00,87.0,73.0,29.85,North,352,0.0,-999.0,64,-99.99,,,-99.99,,2013-07-18 18:32:00,
2013-07-18 14:52:00,87.0,73.0,29.87,ENE,78,1.0,-999.0,64,-99.99,,,-99.99,,2013-07-18 18:52:00,
2013-07-18 15:02:00,87.0,70.0,29.84,South,183,1.0,-999.0,58,-99.99,,,-99.99,,2013-07-18 19:02:00,
2013-07-18 15:11:00,87.0,70.0,29.84,South,183,1.0,-999.0,58,-99.99,,,-99.99,,2013-07-18 19:11:00,
2013-07-18 15:32:00,87.0,71.0,29.87,NNE,14,0.0,-999.0,60,-99.99,,,-99.99,,2013-07-18 19:32:00,
2013-07-18 15:43:00,85.0,70.0,29.83,SE,133,0.0,-999.0,62,-99.99,,,-99.99,,2013-07-18 19:43:00,
2013-07-18 15:53:00,85.0,71.0,29.83,SW,220,0.0,-999.0,63,-99.99,,,-99.99,,2013-07-18 19:53:00,
2013-07-18 16:02:00,85.0,71.0,29.83,SW,220,0.0,-999.0,63,-99.99,,,-99.99,,2013-07-18 20:02:00,
2013-07-18 16:32:00,86.0,73.0,29.82,SSW,195,0.0,-999.0,65,-99.99,,,-99.99,,2013-07-18 20:32:00,
2013-07-18 16:43:00,85.0,72.0,29.81,South,188,0.0,-999.0,66,-99.99,,,-99.99,,2013-07-18 20:43:00,
2013-07-18 16:52:00,85.0,72.0,29.84,South,188,0.0,-999.0,65,-99.99,,,-99.99,,2013-07-18 20:52:00,
2013-07-18 17:01:00,85.0,74.0,29.81,South,188,0.0,-999.0,70,-99.99,,,-99.99,,2013-07-18 21:01:00,
2013-07-18 17:11:00,85.0,72.0,29.82,South,182,0.0,-999.0,65,-99.99,,,-99.99,,2013-07-18 21:11:00,
2013-07-18 17:22:00,86.0,74.0,29.85,South,182,0.0,-999.0,68,-99.99,,,-99.99,,2013-07-18 21:22:00,
2013-07-18 17:32:00,84.0,76.0,29.82,South,182,0.0,-999.0,76,-99.99,,,-99.99,,2013-07-18 21:32:00,
2013-07-18 17:43:00,82.0,74.0,29.82,South,182,0.0,-999.0,78,-99.99,,,-99.99,,2013-07-18 21:43:00,
2013-07-18 17:52:00,82.0,74.0,29.85,ENE,77,1.0,-999.0,77,-99.99,,,-99.99,,2013-07-18 21:52:00,
2013-07-18 18:01:00,79.0,71.0,29.83,ESE,117,0.0,-999.0,76,-99.99,,,-99.99,,2013-07-18 22:01:00,
2013-07-18 18:11:00,79.0,71.0,29.83,ESE,117,0.0,-999.0,76,-99.99,,,-99.99,,2013-07-18 22:11:00,
2013-07-18 18:22:00,78.0,71.0,29.85,West,278,1.0,-999.0,78,-99.99,,,-99.99,,2013-07-18 22:22:00,
2013-07-18 18:32:00,77.0,70.0,29.82,West,278,0.0,-999.0,79,-99.99,,,-99.99,,2013-07-18 22:32:00,
2013-07-18 18:43:00,77.0,70.0,29.82,West,278,0.0,-999.0,79,-99.99,,,-99.99,,2013-07-18 22:43:00,
2013-07-18 18:53:00,78.0,72.0,29.84,West,278,0.0,-999.0,82,-99.99,,,-99.99,,2013-07-18 22:53:00,
2013-07-18 19:02:00,77.0,70.0,29.81,West,279,0.0,-999.0,80,-99.99,,,-99.99,,2013-07-18 23:02:00,
2013-07-18 19:11:00,76.0,70.0,29.83,WNW,293,0.0,-999.0,81,-99.99,,,-99.99,,2013-07-18 23:11:00,
2013-07-18 19:32:00,76.0,70.0,29.82,WNW,293,0.0,-999.0,82,-99.99,,,-99.99,,2013-07-18 23:32:00,
2013-07-18 19:42:00,75.0,69.0,29.83,WNW,293,0.0,-999.0,82,-99.99,,,-99.99,,2013-07-18 23:42:00,
2013-07-18 19:52:00,75.0,69.0,29.86,WNW,293,0.0,-999.0,83,-99.99,,,-99.99,,2013-07-18 23:52:00,
2013-07-18 20:01:00,74.0,68.0,29.83,WNW,293,0.0,-999.0,83,-99.99,,,-99.99,,2013-07-19 00:01:00,
2013-07-18 20:11:00,74.0,68.0,29.83,WNW,293,0.0,-999.0,83,-99.99,,,-99.99,,2013-07-19 00:11:00,
2013-07-18 20:22:00,74.0,69.0,29.86,WNW,293,0.0,-999.0,85,-99.99,,,-99.99,,2013-07-19 00:22:00,
2013-07-18 20:32:00,73.0,68.0,29.83,North,353,0.0,-999.0,85,-99.99,,,-99.99,,2013-07-19 00:32:00,
2013-07-18 20:43:00,73.0,68.0,29.83,North,353,0.0,-999.0,85,-99.99,,,-99.99,,2013-07-19 00:43:00,
2013-07-18 20:52:00,74.0,70.0,29.86,West,269,0.0,-999.0,86,-99.99,,,-99.99,,2013-07-19 00:52:00,
2013-07-18 21:01:00,73.0,69.0,29.83,West,269,0.0,-999.0,87,-99.99,,,-99.99,,2013-07-19 01:01:00,
2013-07-18 21:11:00,73.0,69.0,29.83,West,269,0.0,-999.0,87,-99.99,,,-99.99,,2013-07-19 01:11:00,
2013-07-18 21:32:00,72.0,69.0,29.83,West,269,0.0,-999.0,89,-99.99,,,-99.99,,2013-07-19 01:32:00,
2013-07-18 21:42:00,71.0,68.0,29.83,West,269,0.0,-999.0,90,-99.99,,,-99.99,,2013-07-19 01:42:00,
2013-07-18 22:02:00,71.0,68.0,29.84,West,269,0.0,-999.0,91,-99.99,,,-99.99,,2013-07-19 02:02:00,
2013-07-18 22:11:00,71.0,68.0,29.84,West,269,0.0,-999.0,91,-99.99,,,-99.99,,2013-07-19 02:11:00,
2013-07-18 22:22:00,71.0,68.0,29.84,West,269,0.0,-999.0,91,-99.99,,,-99.99,,2013-07-19 02:22:00,
2013-07-18 22:32:00,71.0,68.0,29.84,West,269,0.0,-999.0,91,-99.99,,,-99.99,,2013-07-19 02:32:00,